Atlantic City, NJ

1:45 AM EDT on May 30, 2017 (GMT -0400)
Atlantic City International

Weather History for KACY - May, 2013

Change the Weather History Date:

Saturday, May 11, 2013

  Actual Average Record
Temperature  
Mean Temperature 68 °F 60 °F  
Max Temperature 75 °F 70 °F 92 °F (1896)
Min Temperature 60 °F 49 °F 25 °F (1966)
Degree Days  
Heating Degree Days 0 7  
Month to date heating degree days 99 87  
Since 1 July heating degree days 4738 4791  
Cooling Degree Days 3 1  
Month to date cooling degree days 4 11  
Year to date cooling degree days 19 20  
Growing Degree Days 18 (Base 50)    
Moisture  
Dew Point 60 °F    
Average Humidity 83    
Maximum Humidity 93    
Minimum Humidity 73    
Precipitation  
Precipitation 1.51 in 0.11 in 1.92 in (1892)
Month to date precipitation 1.63 1.12  
Year to date precipitation 16.49 15.05  
Snow  
Snow 0.00 in 0.00 in 0.00 in ()
Month to date snowfall 0.0 0.0  
Since 1 July snowfall 14.6 16.5  
Snow Depth 0.00 in    
Sea Level Pressure  
Sea Level Pressure 29.82 in    
Wind  
Wind Speed 8 mph (South)    
Max Wind Speed 20 mph    
Max Gust Speed 26 mph    
Visibility 5 miles    
Events Rain , Thunderstorm    
T = Trace of Precipitation, MM = Missing Value Source: NWS Daily Summary

Daily Weather History Graph

Daily Weather History Graph

Search for Another Location

Airport or City:

Trip Planner

Search our weather history database for the weather conditions in past years. The results will help you decide how hot, cold, wet, or windy it might be!

Date:

Astronomy

May. 11, 2013 Rise Set
Actual Time 5:48 AM EDT 8:01 PM EDT
Civil Twilight 5:18 AM EDT 8:31 PM EDT
Nautical Twilight 4:41 AM EDT 9:08 PM EDT
Astronomical Twilight 4:00 AM EDT 9:49 PM EDT
Moon 6:54 AM EDT (5/11) 9:40 PM EDT (5/11)
Length of Visible Light 15h 13m
Length of Day
14h 13m
Waxing Crescent, 3% of the Moon is Illuminated
May 11
Waxing Crescent
May 18
First Quarter
May 25
Full
May 31
Last Quarter
Jun 8
New

Hourly Weather History & Observations

Time (EDT) Temp. Dew Point Humidity Pressure Visibility Wind Dir Wind Speed Gust Speed Precip Events Conditions
12:54 AM 64.9 °F 55.0 °F 70% 29.92 in 10.0 mi Calm Calm - N/A   Mostly Cloudy
1:54 AM 66.0 °F 57.0 °F 73% 29.95 in 10.0 mi WNW 18.4 mph 25.3 mph N/A   Mostly Cloudy
2:54 AM 63.0 °F 60.1 °F 90% 29.91 in 10.0 mi West 5.8 mph - 0.07 in Rain Light Rain
3:54 AM 63.0 °F 60.1 °F 90% 29.92 in 10.0 mi SSW 6.9 mph - 0.09 in Rain Light Rain
4:54 AM 63.0 °F 59.0 °F 87% 29.86 in 10.0 mi South 5.8 mph - 0.02 in   Scattered Clouds
5:54 AM 62.1 °F 59.0 °F 90% 29.87 in 10.0 mi South 6.9 mph - N/A   Partly Cloudy
6:54 AM 61.0 °F 57.9 °F 90% 29.87 in 10.0 mi South 11.5 mph - N/A   Mostly Cloudy
7:38 AM 61.0 °F 57.9 °F 90% 29.89 in 6.0 mi South 16.1 mph 23.0 mph N/A   Mostly Cloudy
7:47 AM 61.0 °F 57.9 °F 90% 29.88 in 6.0 mi South 11.5 mph 23.0 mph N/A   Overcast
7:54 AM 62.1 °F 59.0 °F 90% 29.87 in 10.0 mi South 10.4 mph - N/A   Mostly Cloudy
8:15 AM 63.0 °F 60.1 °F 90% 29.86 in 6.0 mi South 10.4 mph - N/A   Mostly Cloudy
8:54 AM 63.0 °F 60.1 °F 90% 29.87 in 6.0 mi SSW 10.4 mph - 0.02 in Rain Light Rain
9:02 AM 63.0 °F 60.1 °F 90% 29.89 in 3.0 mi SW 11.5 mph - 0.00 in Rain Light Rain
9:06 AM 63.0 °F 60.1 °F 90% 29.89 in 1.8 mi SSW 12.7 mph - 0.03 in Rain Heavy Rain
9:18 AM 63.0 °F 60.1 °F 90% 29.88 in 3.0 mi South 11.5 mph - 0.11 in Rain Rain
9:54 AM 63.0 °F 60.1 °F 90% 29.84 in 2.5 mi SE 13.8 mph - 0.26 in Rain Rain
9:57 AM 63.0 °F 60.1 °F 90% 29.85 in 3.0 mi SSE 10.4 mph - 0.00 in Rain Light Rain
9:59 AM 62.1 °F 60.1 °F 93% 29.85 in 2.0 mi SSE 11.5 mph - 0.00 in Rain , Thunderstorm Light Thunderstorms and Rain
10:21 AM 60.1 °F 57.9 °F 93% 29.86 in 1.2 mi SSE 9.2 mph - 0.09 in Rain , Thunderstorm Heavy Thunderstorms and Rain
10:29 AM 60.1 °F 57.9 °F 93% 29.85 in 1.8 mi SSE 9.2 mph - 0.14 in Rain , Thunderstorm Heavy Thunderstorms and Rain
10:36 AM 60.1 °F 57.9 °F 93% 29.84 in 2.0 mi ESE 9.2 mph - 0.18 in Rain , Thunderstorm Thunderstorms and Rain
10:54 AM 60.1 °F 57.9 °F 93% 29.84 in 2.0 mi SE 10.4 mph - 0.23 in Rain , Thunderstorm Thunderstorms and Rain
11:21 AM 60.1 °F 57.9 °F 93% 29.86 in 1.5 mi SSE 12.7 mph - 0.11 in Rain , Thunderstorm Thunderstorms and Rain
11:29 AM 61.0 °F 57.9 °F 90% 29.86 in 2.0 mi South 6.9 mph - 0.12 in Rain , Thunderstorm Thunderstorms and Rain
11:54 AM 63.0 °F 60.1 °F 90% 29.84 in 2.0 mi South 5.8 mph - 0.15 in Rain , Thunderstorm Light Thunderstorms and Rain
12:01 PM 63.0 °F 61.0 °F 93% 29.83 in 2.0 mi South 5.8 mph - 0.00 in Rain Light Rain
12:10 PM 63.0 °F 62.1 °F 97% 29.82 in 5.0 mi SSE 6.9 mph - 0.00 in   Mostly Cloudy
12:54 PM 66.0 °F 61.0 °F 84% 29.81 in 10.0 mi South 9.2 mph - 0.00 in   Partly Cloudy
1:54 PM 73.9 °F 64.0 °F 71% 29.79 in 9.0 mi SSE 12.7 mph - N/A   Clear
2:54 PM 71.1 °F 62.1 °F 73% 29.77 in 8.0 mi South 11.5 mph 20.7 mph N/A   Clear
3:54 PM 68.0 °F 60.1 °F 76% 29.75 in 8.0 mi South 11.5 mph 17.3 mph N/A   Partly Cloudy
4:54 PM 66.0 °F 62.1 °F 87% 29.76 in 6.0 mi South 6.9 mph - 0.04 in   Overcast
5:06 PM 64.9 °F 61.0 °F 87% 29.75 in 1.8 mi SW 6.9 mph - 0.02 in Rain Rain
5:18 PM 64.9 °F 62.1 °F 90% 29.76 in 3.0 mi South 5.8 mph - 0.08 in Rain Light Rain
5:40 PM 64.9 °F 63.0 °F 93% 29.75 in 4.0 mi SSE 4.6 mph - 0.10 in   Overcast
5:54 PM 64.0 °F 62.1 °F 93% 29.76 in 4.0 mi South 10.4 mph - 0.10 in   Overcast
5:59 PM 64.0 °F 61.0 °F 90% 29.75 in 1.2 mi Variable 4.6 mph - 0.02 in Rain Rain
6:03 PM 64.0 °F 61.0 °F 90% 29.75 in 0.8 mi SSE 8.1 mph - 0.12 in Rain , Thunderstorm Heavy Thunderstorms and Rain
6:11 PM 64.0 °F 62.1 °F 93% 29.74 in 1.0 mi SSE 4.6 mph - 0.28 in Rain Rain
6:16 PM 64.0 °F 62.1 °F 93% 29.73 in 2.0 mi SSE 6.9 mph - 0.30 in Rain Rain
6:26 PM 64.0 °F 61.0 °F 90% 29.74 in 4.0 mi SSE 8.1 mph - 0.30 in Rain Light Rain
6:54 PM 64.0 °F 62.1 °F 93% 29.75 in 2.0 mi SE 8.1 mph - 0.31 in   Overcast
7:54 PM 64.0 °F 61.0 °F 90% 29.75 in 3.0 mi Calm Calm - N/A   Mostly Cloudy
8:13 PM 64.0 °F 62.1 °F 93% 29.77 in 1.8 mi WNW 4.6 mph - 0.07 in Rain Heavy Rain
8:24 PM 64.0 °F 63.0 °F 96% 29.75 in 3.0 mi Calm Calm - 0.17 in Rain Light Rain
8:54 PM 64.0 °F 63.0 °F 96% 29.76 in 3.0 mi SSW 4.6 mph - 0.17 in   Mostly Cloudy
9:54 PM 64.0 °F 62.1 °F 93% 29.75 in 10.0 mi Calm Calm - N/A   Mostly Cloudy
10:54 PM 64.0 °F 61.0 °F 90% 29.75 in 10.0 mi South 4.6 mph - N/A   Mostly Cloudy
11:54 PM 63.0 °F 60.1 °F 90% 29.76 in 10.0 mi SSW 5.8 mph - 0.03 in   Overcast